Regional Weather Roundup
Issued by NWS Kansas City/Pleasant Hill, MO

Home | Current Version | Previous Version | Graphics & Text | Print | Product List | Glossary Off
Versions: 1 2 3 4 5 6 7 8 9 10 11 12 13 14 15 16 17 18 19 20 21 22 23 24 25 26 27 28 29 30 31 32 33 34 35 36 37 38 39 40 41 42 43 44 45 46 47 48 49 50

000
ASUS43 KEAX 260810
RWREAX

WEATHER ROUNDUP FOR EASTERN KANSAS AND NORTHWEST MISSOURI
NATIONAL WEATHER SERVICE KANSAS CITY/PLEASANT HILL MO
300 AM CDT THU MAY 26 2016

KSZ040-057-103>105-MOZ028-029-037-043-260900-
...KANSAS CITY METROPOLITAN AREA...

CITY           SKY/WX    TMP DP  RH WIND       PRES   REMARKS
K.C. INTL      CLOUDY    71  58  63 SW3       29.83F
K.C. DOWNTOWN  CLOUDY    75  55  49 VRB6      29.82F
LEES SUMMIT    CLOUDY    71  56  58 S22G28    29.84F
OLATHE - IXD   CLOUDY    66  61  84 SE20G25   29.80F
OLATHE - OJC   CLOUDY    64  61  90 SE16      29.82F THUNDER
LAWRENCE       CLOUDY    70  58  65 VRB5      29.81F

$$

MOZ001>008-011>017-020>025-030>033-038>040-044>046-053-054-260900-
...NORTHERN AND CENTRAL MISSOURI...

CITY           SKY/WX    TMP DP  RH WIND       PRES   REMARKS
ST. JOSEPH     CLOUDY    66  63  90 CALM      29.82F
MOSBY          CLOUDY    70  59  68 E7        29.81F
WARRENSBURG    TSTM      64  59  82 NW6G18    29.92R
WHITEMAN AFB   TSTM      72  64  78 N22       29.91R
CLINTON        CLOUDY    72  68  88 CALM      29.91S
SEDALIA        PTCLDY    72  68  87 S9        29.92R
WARSAW         NOT AVBL
CHILLICOTHE      N/A     73  69  87 CALM      29.83F
KIRKSVILLE     CLOUDY    71  66  84 CALM      29.87F

$$

MOZ041-047>049-056>058-063>065-088>090-097-260900-
...EASTERN AND SOUTHERN MISSOURI...

CITY           SKY/WX    TMP DP  RH WIND       PRES   REMARKS
ST. LOUIS INTL PTCLDY    73  67  81 S8        29.95F
SPIRIT OF STL  PTCLDY    70  68  93 SW3       29.93F
COLUMBIA       PTCLDY    71  68  90 S10       29.91F
JEFFERSON CITY CLOUDY    72  68  87 SE6       29.91F
ROLLA          CLOUDY    72  69  90 S12       29.95S
SPRINGFIELD    CLOUDY    72  68  87 S14       29.92F
JOPLIN         CLOUDY    76  71  85 S10G20    29.90F
WEST PLAINS    CLOUDY    71  68  90 S8        30.00F

$$

IAZ060-094-KSZ022-034>040-054-083-096-NEZ052-066-093-260900-
...KANSAS...SOUTHEAST NEBRASKA AND IOWA...

CITY           SKY/WX    TMP DP  RH WIND       PRES   REMARKS
TOPEKA         LGT RAIN  72  64  76 SW8       29.82F
MANHATTAN      MOCLDY    66  61  84 CALM      29.85S
EMPORIA        CLOUDY    73  71  93 S6        29.83F
CHANUTE        CLOUDY    76  72  87 S13       29.84F
WICHITA        PTCLDY    70  69  97 S6        29.83F FOG
OMAHA          CLOUDY    64  58  80 E13G23    29.88R
LINCOLN        CLEAR     62  55  77 NW5       29.83F
FALLS CITY     CLEAR     63  61  93 CALM      29.83R
LAMONI         CLOUDY    69  66  90 S9        29.78F
DES MOINES     CLOUDY    66  61  82 S8        29.82R THUNDER

$$




USA.gov is the U.S. government's official web portal to all federal, state and local government web resources and services.